TimeCDT,TemperatureF,Dew PointF,Humidity,Sea Level PressureIn,VisibilityMPH,Wind Direction,Wind SpeedMPH,Gust SpeedMPH,PrecipitationIn,Events,Conditions,WindDirDegrees,DateUTC
12:52 AM,84.0,63.0,49,29.93,10.0,South,13.8,-,N/A,,Clear,190,2013-09-09 05:52:00
1:52 AM,82.0,64.0,54,29.94,10.0,South,9.2,-,N/A,,Clear,190,2013-09-09 06:52:00
2:52 AM,80.1,64.0,58,29.94,10.0,South,4.6,-,N/A,,Clear,170,2013-09-09 07:52:00
3:52 AM,78.1,64.9,64,29.95,10.0,South,5.8,-,N/A,,Clear,180,2013-09-09 08:52:00
4:52 AM,75.9,64.0,67,29.94,10.0,South,5.8,-,N/A,,Clear,190,2013-09-09 09:52:00
5:52 AM,75.9,64.9,69,29.95,10.0,South,4.6,-,N/A,,Clear,170,2013-09-09 10:52:00
6:52 AM,77.0,64.9,66,29.97,10.0,Calm,Calm,-,N/A,,Partly Cloudy,0,2013-09-09 11:52:00
7:52 AM,75.9,66.0,71,29.98,10.0,South,3.5,-,N/A,,Partly Cloudy,180,2013-09-09 12:52:00
8:52 AM,81.0,66.9,62,29.99,10.0,South,5.8,-,N/A,,Partly Cloudy,180,2013-09-09 13:52:00
9:52 AM,84.9,66.0,53,30.00,10.0,SSW,6.9,-,N/A,,Partly Cloudy,200,2013-09-09 14:52:00
10:52 AM,89.1,64.0,43,30.01,10.0,South,8.1,16.1,N/A,,Scattered Clouds,170,2013-09-09 15:52:00
11:52 AM,91.0,61.0,36,30.00,10.0,SSE,6.9,19.6,N/A,,Scattered Clouds,150,2013-09-09 16:52:00
12:52 PM,93.9,61.0,33,29.99,10.0,SSE,12.7,23.0,N/A,,Scattered Clouds,160,2013-09-09 17:52:00
1:52 PM,93.9,60.1,32,29.97,10.0,South,10.4,21.9,N/A,,Scattered Clouds,170,2013-09-09 18:52:00
2:52 PM,96.1,60.1,30,29.94,10.0,South,12.7,-,N/A,,Scattered Clouds,170,2013-09-09 19:52:00
3:52 PM,97.0,59.0,28,29.92,10.0,SSE,10.4,18.4,N/A,,Scattered Clouds,150,2013-09-09 20:52:00
4:52 PM,97.0,59.0,28,29.91,10.0,SE,13.8,-,N/A,,Scattered Clouds,130,2013-09-09 21:52:00
5:52 PM,96.1,57.9,28,29.90,10.0,SSE,12.7,-,N/A,,Partly Cloudy,160,2013-09-09 22:52:00
6:52 PM,95.0,57.9,29,29.90,10.0,SSE,10.4,-,N/A,,Scattered Clouds,160,2013-09-09 23:52:00
7:52 PM,93.0,57.9,31,29.91,10.0,SE,11.5,-,N/A,,Scattered Clouds,140,2013-09-10 00:52:00
8:52 PM,91.0,60.1,35,29.93,10.0,SSE,12.7,-,N/A,,Mostly Cloudy,160,2013-09-10 01:52:00
9:52 PM,86.0,63.0,46,29.95,10.0,South,16.1,26.5,N/A,,Scattered Clouds,180,2013-09-10 02:52:00
10:52 PM,84.0,63.0,49,29.96,10.0,South,16.1,-,N/A,,Scattered Clouds,180,2013-09-10 03:52:00
11:52 PM,81.0,63.0,54,29.98,10.0,South,10.4,-,N/A,,Clear,190,2013-09-10 04:52:00